Terminal Aerodrome Forecast
Issued by NWS Pittsburgh, PA

Current Version | Previous Version | Graphics & Text | Print | Product List | Glossary On
Versions: 1 2 3 4 5 6 7 8 9 10 11 12 13 14 15 16 17 18 19 20 21 22 23 24 25 26 27 28 29 30
000
FTUS41 KPBZ 242000 AAA
TAFPIT
TAF AMD
KPIT 242055Z 2421/2524 28010KT 4SM BR OVC010
     FM242300 26009KT 3SM -SHSN OVC008
     FM251600 VRB03KT 2SM -SN OVC007
     FM252100 05005KT 1SM -SN OVC004=

USA.gov is the U.S. government's official web portal to all federal, state and local government web resources and services.